Weather History for KHHW - August, 2013

Change the Weather History Date:

Monday, August 5, 2013

  Actual Average Record
Temperature  
Mean Temperature 92 °F -  
Max Temperature 104 °F 94 °F 104 °F (2013)
Min Temperature 79 °F 69 °F 67 °F (2014)
Cooling Degree Days 26    
Growing Degree Days 42 (Base 50)    
Moisture  
Dew Point 74 °F    
Average Humidity 59    
Maximum Humidity 89    
Minimum Humidity 34    
Precipitation  
Precipitation 0.00 in - - ()
Sea Level Pressure  
Sea Level Pressure 29.94 in    
Wind  
Wind Speed 5 mph (South)    
Max Wind Speed 10 mph    
Max Gust Speed 17 mph    
Visibility 10 miles    
Events      
Averages and records for this station are not official NWS values.
T = Trace of Precipitation, MM = Missing Value Source: NWS Daily Summary

Daily Weather History Graph

Daily Weather History Graph

Search for Another Location

Airport or City:

Trip Planner

Search our weather history database for the weather conditions in past years. The results will help you decide how hot, cold, wet, or windy it might be!

Date:

Astronomy

Aug. 05, 2013 Rise Set
Actual Time 6:36 AM CDT 8:19 PM CDT
Civil Twilight 6:09 AM CDT 8:46 PM CDT
Nautical Twilight 5:36 AM CDT 9:18 PM CDT
Astronomical Twilight 5:02 AM CDT 9:53 PM CDT
Moon 5:32 AM CDT (8/5) 7:21 PM CDT (8/5)
Length of Visible Light 14h 36m
Length of Day
13h 42m
Waning Crescent, 1% of the Moon is Illuminated
Aug 5
Waning Crescent
Aug 6
New
Aug 14
First Quarter
Aug 20
Full
Aug 28
Last Quarter

Hourly Weather History & Observations

Time (CDT) Temp. Heat Index Dew Point Humidity Pressure Visibility Wind Dir Wind Speed Gust Speed Precip Events Conditions
12:15 AM 87.3 °F 99.3 °F 77.4 °F 72% 29.99 in 10.0 mi SE 5.8 mph - N/A   Clear
12:35 AM 86.9 °F 98.8 °F 77.2 °F 73% 29.99 in 10.0 mi SSE 6.9 mph - N/A   Clear
12:55 AM 86.4 °F 97.8 °F 77.2 °F 74% 29.99 in 10.0 mi SE 5.8 mph - N/A   Clear
1:15 AM 85.6 °F 96.8 °F 77.2 °F 76% 29.99 in 10.0 mi SE 4.6 mph - N/A   Clear
1:35 AM 85.1 °F 95.8 °F 77.0 °F 77% 29.98 in 10.0 mi SE 4.6 mph - N/A   Clear
1:55 AM 84.9 °F 95.3 °F 77.0 °F 77% 29.98 in 10.0 mi ESE 4.6 mph - N/A   Clear
2:15 AM 82.8 °F 91.6 °F 77.2 °F 83% 29.98 in 10.0 mi ESE 4.6 mph - N/A   Clear
2:35 AM 82.4 °F 90.9 °F 77.2 °F 84% 29.98 in 10.0 mi ESE 4.6 mph - N/A   Clear
2:55 AM 82.0 °F 90.2 °F 77.0 °F 85% 29.98 in 10.0 mi ESE 3.5 mph - N/A   Clear
3:15 AM 81.7 °F 89.5 °F 77.0 °F 86% 29.98 in 10.0 mi ESE 4.6 mph - N/A   Clear
3:35 AM 81.7 °F 89.5 °F 77.0 °F 86% 29.98 in 10.0 mi ESE 3.5 mph - N/A   Clear
3:55 AM 81.9 °F 89.5 °F 76.6 °F 84% 29.97 in 10.0 mi SSE 4.6 mph - N/A   Clear
4:15 AM 82.6 °F 90.5 °F 76.1 °F 81% 29.97 in 10.0 mi SSE 5.8 mph - N/A   Clear
4:35 AM 82.6 °F 90.2 °F 75.7 °F 80% 29.97 in 10.0 mi SSE 3.5 mph - N/A   Clear
4:55 AM 82.4 °F 89.8 °F 75.6 °F 80% 29.97 in 10.0 mi SSE 3.5 mph - N/A   Clear
5:15 AM 82.0 °F 88.9 °F 75.4 °F 80% 29.97 in 10.0 mi SE 3.5 mph - N/A   Clear
5:35 AM 81.9 °F 88.7 °F 75.4 °F 81% 29.97 in 10.0 mi SSE 3.5 mph - N/A   Clear
5:55 AM 80.6 °F 86.4 °F 75.7 °F 85% 29.98 in 10.0 mi Calm Calm - N/A   Clear
6:15 AM 79.5 °F - 75.7 °F 88% 29.98 in 10.0 mi Calm Calm - N/A   Clear
6:35 AM 79.7 °F - 76.1 °F 89% 29.98 in 10.0 mi Calm Calm - N/A   Clear
6:55 AM 79.9 °F - 76.1 °F 88% 29.98 in 10.0 mi Calm Calm - N/A   Clear
7:15 AM 81.0 °F 87.3 °F 75.9 °F 85% 29.98 in 10.0 mi Calm Calm - N/A   Clear
7:35 AM 82.9 °F 91.2 °F 76.1 °F 80% 29.98 in 10.0 mi South 3.5 mph - N/A   Clear
7:55 AM 84.2 °F 93.4 °F 76.5 °F 77% 29.98 in 10.0 mi SSW 5.8 mph - N/A   Clear
8:15 AM 86.0 °F 96.4 °F 76.6 °F 73% 29.99 in 10.0 mi SSW 6.9 mph - N/A   Clear
8:35 AM 87.1 °F 98.3 °F 76.8 °F 71% 29.99 in 10.0 mi SSW 8.1 mph - N/A   Clear
8:55 AM 87.8 °F 99.1 °F 76.6 °F 69% 29.99 in 10.0 mi SW 6.9 mph - N/A   Clear
9:15 AM 89.6 °F 102.2 °F 76.8 °F 66% 30.00 in 10.0 mi SSW 5.8 mph - N/A   Clear
9:35 AM 90.9 °F 103.7 °F 76.5 °F 63% 29.99 in 10.0 mi SW 9.2 mph - N/A   Clear
9:55 AM 92.1 °F 103.6 °F 75.6 °F 58% 29.99 in 10.0 mi SW 8.1 mph - N/A   Clear
10:15 AM 93.2 °F 105.0 °F 75.6 °F 56% 30.00 in 10.0 mi WSW 5.8 mph - N/A   Clear
10:35 AM 94.1 °F 106.6 °F 75.7 °F 55% 29.99 in 10.0 mi SW 6.9 mph - N/A   Clear
10:55 AM 95.2 °F 107.9 °F 75.4 °F 53% 29.99 in 10.0 mi SW 8.1 mph - N/A   Clear
11:15 AM 96.4 °F 108.0 °F 74.7 °F 49% 29.98 in 10.0 mi SW 10.4 mph - N/A   Clear
11:35 AM 97.0 °F 109.3 °F 74.7 °F 49% 29.98 in 10.0 mi SSW 9.2 mph - N/A   Clear
11:55 AM 97.3 °F 108.6 °F 74.3 °F 47% 29.98 in 10.0 mi SSW 9.2 mph - N/A   Clear
12:15 PM 98.8 °F 110.5 °F 74.3 °F 45% 29.97 in 10.0 mi SW 9.2 mph - N/A   Clear
12:35 PM 99.3 °F 112.7 °F 75.0 °F 46% 29.96 in 10.0 mi SW 5.8 mph 9.2 mph N/A   Clear
12:55 PM 100.0 °F 112.7 °F 74.7 °F 44% 29.95 in 10.0 mi SSW 9.2 mph - N/A   Clear
1:15 PM 100.0 °F 112.7 °F 74.8 °F 44% 29.95 in 10.0 mi SW 5.8 mph 17.3 mph N/A   Clear
1:35 PM 100.6 °F 112.3 °F 73.4 °F 42% 29.94 in 10.0 mi SSW 8.1 mph - N/A   Scattered Clouds
1:55 PM 100.4 °F 111.9 °F 73.6 °F 42% 29.94 in 10.0 mi SSW 8.1 mph - N/A   Clear
2:15 PM 101.1 °F 112.7 °F 73.8 °F 41% 29.93 in 10.0 mi SW 8.1 mph - N/A   Scattered Clouds
2:35 PM 101.5 °F 112.7 °F 73.4 °F 40% 29.93 in 10.0 mi SSW 8.1 mph - N/A   Scattered Clouds
2:55 PM 101.8 °F 113.5 °F 73.2 °F 40% 29.92 in 10.0 mi SSW 5.8 mph - N/A   Clear
3:15 PM 102.9 °F 114.2 °F 72.5 °F 38% 29.92 in 10.0 mi SSW 5.8 mph - N/A   Clear
3:35 PM 102.9 °F 114.2 °F 72.5 °F 38% 29.91 in 10.0 mi SSW 6.9 mph - N/A   Clear
3:55 PM 102.6 °F 112.5 °F 71.6 °F 37% 29.90 in 10.0 mi SSW 4.6 mph - N/A   Scattered Clouds
4:15 PM 103.5 °F 112.7 °F 71.2 °F 35% 29.90 in 10.0 mi SW 6.9 mph - N/A   Scattered Clouds
4:35 PM 103.3 °F 111.5 °F 70.2 °F 34% 29.89 in 10.0 mi SSW 4.6 mph - N/A   Clear
4:55 PM 104.0 °F 113.0 °F 70.7 °F 34% 29.88 in 10.0 mi South 4.6 mph - N/A   Clear
5:15 PM 103.3 °F 111.5 °F 69.8 °F 34% 29.88 in 10.0 mi South 4.6 mph - N/A   Clear
5:35 PM 103.1 °F 112.0 °F 70.2 °F 35% 29.87 in 10.0 mi SW 4.6 mph - N/A   Clear
5:55 PM 103.3 °F 111.5 °F 69.6 °F 34% 29.87 in 10.0 mi SSW 4.6 mph - N/A   Clear
6:15 PM 102.2 °F 110.9 °F 70.3 °F 36% 29.86 in 10.0 mi SSW 6.9 mph - N/A   Clear
6:35 PM 101.7 °F 110.5 °F 70.9 °F 37% 29.86 in 10.0 mi South 3.5 mph - N/A   Clear
6:55 PM 100.9 °F 109.7 °F 71.1 °F 38% 29.85 in 10.0 mi Calm Calm - N/A   Clear
7:15 PM 99.7 °F 108.5 °F 71.4 °F 40% 29.85 in 10.0 mi South 3.5 mph - N/A   Clear
7:35 PM 98.4 °F 107.3 °F 72.0 °F 42% 29.85 in 10.0 mi South 3.5 mph - N/A   Clear
7:55 PM 96.8 °F 105.8 °F 72.5 °F 45% 29.85 in 10.0 mi Calm Calm - N/A   Clear
8:15 PM 94.6 °F 103.7 °F 72.5 °F 49% 29.85 in 10.0 mi South 3.5 mph - N/A   Clear
8:35 PM 93.6 °F 101.3 °F 71.6 °F 49% 29.85 in 10.0 mi Calm Calm - N/A   Clear
8:55 PM 92.5 °F 100.1 °F 72.0 °F 51% 29.86 in 10.0 mi South 3.5 mph - N/A   Clear
9:15 PM 91.9 °F 99.0 °F 71.6 °F 51% 29.87 in 10.0 mi South 3.5 mph - N/A   Clear
9:35 PM 91.8 °F 98.6 °F 71.1 °F 51% 29.88 in 10.0 mi South 4.6 mph - N/A   Clear
9:55 PM 90.9 °F 97.3 °F 71.1 °F 52% 29.89 in 10.0 mi South 4.6 mph - N/A   Clear
10:15 PM 90.1 °F 96.3 °F 71.1 °F 53% 29.89 in 10.0 mi South 4.6 mph - N/A   Clear
10:35 PM 90.1 °F 96.3 °F 70.7 °F 53% 29.88 in 10.0 mi SSE 5.8 mph - N/A   Clear
10:55 PM 90.0 °F 95.9 °F 70.5 °F 53% 29.88 in 10.0 mi South 4.6 mph - N/A   Clear
11:15 PM 89.4 °F 95.3 °F 70.7 °F 54% 29.89 in 10.0 mi South 4.6 mph - N/A   Clear
11:35 PM 88.9 °F 94.2 °F 70.5 °F 54% 29.89 in 10.0 mi South 3.5 mph - N/A   Clear
11:55 PM 88.2 °F 93.7 °F 70.7 °F 56% 29.89 in 10.0 mi South 3.5 mph - N/A   Clear